Preview of NWS' New Version of Forecast
This preview is not operational and should not be used for support decisions.
Latest weather observations around

Craig Field / Selma (KSEM)

Using International System of Units (Switch to English Units)
Date/ Time (CDT) Wind (kph) Vis. (km) Weather Sky Cond. Temp (°C) Rel. Humidity Wind Chill (°C) Heat Index (°C) Pressure Precip. (cm)
Air Dwpt 6 hour Altimeter (hPa) Sea level (hPa) 1 hr 3 hr 6 hr
Max Min
May 28 03:35 NE 13 16.09 Light Rain FEW033 SCT045 BKN110 22 20     88%   23 1008.1        
May 28 03:15 NE 15 16.09 Light Rain SCT030 SCT038 BKN060 22 20     88%   23 1008.5        
May 28 02:55 NE 13 16.09 Light Rain BKN027 OVC041 22 20     88%   23 1008.8        
May 27 23:55 ENE 18 16.09 Mostly Cloudy FEW075 BKN095 BKN110 24 18     69%   24 1010.5        
May 27 21:55 ESE 13 16.09 Mostly Cloudy BKN055 BKN070 25 19     69%   25 1011.2        
May 27 21:35 ESE 9 16.09 Partly Cloudy FEW050 SCT060 25 20     74%   25 1010.8        
May 27 21:15 E 17 16.09 Clear CLR 26 19     65%   26 1010.8        
May 27 20:55 ENE 9 16.09 Clear CLR 26 20     70%   26 1010.5        
May 27 20:35 ENE 8 16.09 Clear CLR 26 20     70%   26 1010.2        
May 27 20:15 NE 5 16.09 Clear CLR 26 20     70%   26 1009.8        
May 27 19:55 ENE 5 16.09 Clear CLR 26 20     70%   26 1009.8        
May 27 19:35 E 5 16.09 Clear CLR 27 20     66%   28 1009.5        
May 27 19:15 ENE 5 16.09 Clear CLR 27 21     70%   29 1009.5        
May 27 18:55 E 5 16.09 Clear CLR 28 21     66%   30 1009.2        
May 27 18:35 ENE 8 16.09 Clear   28 20     62%   30 1009.2        
May 27 18:15 E 8 16.09 Clear   28 20     62%   30 1009.2        
May 27 17:55 E 11 16.09 Clear   29 20     58%   31 1009.2        
May 27 17:35 E 9 16.09 Mostly Clear FEW049 30 20     55%   32 1009.2        
May 27 17:15 E 13 16.09 Mostly Clear FEW045 FEW060 FEW080 30 20     55%   32 1009.2        
May 27 16:55 ENE 13 16.09 Mostly Clear FEW045 FEW065 FEW080 30 19     52%   31 1009.5        
May 27 16:35 E 15 16.09 Clear CLR 30 19     52%   31 1009.5        
May 27 16:15 ENE 15 16.09 Clear CLR 31 19     49%   32 1009.5        
May 27 15:55 NE 13 16.09 Clear CLR 30 20     55%   32 1009.8        
May 27 15:35 NE 13 16.09 Clear CLR 30 20     55%   32 1010.2        
May 27 15:15 NE 18 16.09 Clear CLR 31 19     49%   32 1010.2        
May 27 14:55 NE 13 16.09 Mostly Clear FEW041 FEW047 30 19     52%   31 1010.5        
May 27 14:35 ENE 18 16.09 Mostly Clear FEW044 FEW075 31 19     49%   32 1010.5        
May 27 14:15 ENE 13 16.09 Mostly Clear FEW046 FEW055 FEW075 30 19     52%   31 1010.8        
May 27 13:55 NE 13 16.09 Partly Cloudy SCT045 SCT055 30 19     52%   31 1011.2        
May 27 13:35 11 16.09 Clear CLR 30 19     52%   31 1011.2        
May 27 13:15 E 18 16.09 Mostly Clear FEW031 FEW039 FEW045 30 19     52%   31 1011.5        
May 27 12:55 NNE 11 16.09 Mostly Clear FEW032 FEW041 29 20     58%   31 1011.9        
May 27 12:35 NE 13 16.09 Mostly Clear FEW029 29 20     58%   31 1011.9        
May 27 12:15 NNE 11 16.09 Mostly Clear FEW028 28 20     62%   30 1012.2        
May 27 11:55 N 13 16.09 Clear CLR 28 20     62%   30 1012.5        
May 27 11:35 N 11 16.09 Clear CLR 27 20     66%   28 1012.9        
May 27 11:15 NNE 8 16.09 Clear CLR 27 21     70%   29 1012.9        
May 27 10:55 NE 11 16.09 Clear CLR 26 21     74%   27 1012.9        
Notice The following observation data may not be complete
May 27 10:35   16.09 Mostly Clear FEW013          %              
May 27 10:15 9 16.09 Partly Cloudy SCT013 25 21     78%   26 1013.2        
May 27 09:55 ENE 15 16.09 Mostly Clear FEW013 25 21     78%   26 1013.2        
May 27 09:35 8 16.09 Clear CLR 25 21     78%   26 1012.9        
May 27 09:15 9 16.09 Clear CLR 25 21     78%   26 1013.2        
May 27 08:55 ENE 11 16.09 Mostly Clear FEW007 24 21     83%   25 1013.2        
May 27 08:35 E 13 16.09 Mostly Clear FEW007 24 21     83%   25 1013.2        
May 27 08:15 ESE 11 16.09 Mostly Clear FEW006 24 22     89%   25 1013.2        
May 27 07:55 8 16.09 Mostly Clear FEW005 23 22     94%   24 1012.9        
May 27 07:35 E 9 16.09 Mostly Clear FEW003 22 22     100%   23 1012.9        
May 27 07:15 E 9 16.09 Partly Cloudy SCT003 22 21     94%   23 1012.9        
May 27 06:55 9 16.09 Partly Cloudy SCT003 21 21     100%     1012.5        
May 27 06:35 Calm 16.09 Clear CLR 21 21     100%     1012.5        
May 27 06:15 Calm 16.09 Mostly Cloudy BKN002 21 20     94%     1012.2        
May 27 05:55 ESE 8 11.27 Cloudy OVC002 21 20     94%     1012.5        
May 27 05:35 Calm 16.09 Cloudy OVC002 21 20     94%     1012.2        
May 27 05:15 Calm 16.09 Cloudy OVC002 21 20     94%     1012.2        
May 27 04:55 Calm 16.09 Cloudy OVC002 21 20     94%     1011.9        
May 27 04:35 Calm 16.09 Mostly Cloudy BKN002 21 20     94%     1011.9        
May 27 04:15 Calm 16.09 Clear CLR 21 21     100%     1011.9        
May 27 03:55 Calm 16.09 Clear CLR 21 21     100%     1011.9        
May 27 03:35 Calm 16.09 Clear CLR 20 20     100%     1011.9        
May 27 03:15 SE 5 6.44 Fog/Mist CLR 20 20     100%     1011.9        
May 27 02:55 SSE 8 1.21 Fog/Mist BKN002 20 20     100%     1011.9        
May 27 02:35 SSE 5 1.21 Fog/Mist OVC002 20 19     94%     1011.9        
May 27 02:15 Calm 16.09 Mostly Cloudy BKN002 20 20     100%     1012.2        
May 27 01:55 Calm 16.09 Clear CLR 21 20     94%     1012.2        
May 27 01:35 Calm 16.09 Clear CLR 21 20     94%     1012.2        
May 27 01:15 Calm 16.09 Clear CLR 21 20     94%     1012.2        
May 27 00:55 Calm 16.09 Clear CLR 21 20     94%     1012.2        
May 27 00:35 E 5 11.27 Clear CLR 21 20     94%     1012.5        
May 27 00:15 Calm 16.09 Clear CLR 21 20     94%     1012.5        
May 26 23:55 Calm 16.09 Clear CLR 21 20     94%     1012.5        
May 26 23:35 Calm 16.09 Clear CLR 21 20     94%     1012.5        
May 26 23:15 Calm 16.09 Clear CLR 21 20     94%     1012.9        
May 26 22:55 ESE 5 16.09 Clear CLR 21 21     100%     1012.5        
May 26 22:35 ENE 5 16.09 Clear CLR 22 21     94%   23 1012.5        
May 26 22:15 Calm 16.09 Clear CLR 22 21     94%   23 1012.5        
May 26 21:55 Calm 16.09 Partly Cloudy SCT032 SCT037 SCT048 22 21     94%   23 1012.5        
May 26 21:35 WSW 8 16.09 Rain BKN033 OVC042 22 21     94%   23 1012.5        
May 26 21:15 SW 8 14.48 Rain SCT034 BKN041 OVC065 22 21     94%   23 1012.5        
May 26 20:55 SW 15 16.09 Rain SCT034 BKN039 OVC060 22 21     94%   23 1012.5        
May 26 20:35 S 11 14.48 Rain FEW034 SCT045 BKN060 23 21     89%   24 1012.2        
May 26 20:15 S 22 16.09 Cloudy SCT038 SCT048 OVC055 25 19     69%   25 1011.9        
May 26 19:55 Calm 16.09 Mostly Cloudy SCT041 SCT049 BKN055 25 22     83%   26 1011.2        
May 26 19:35 Calm 16.09 Mostly Clear FEW041 27 22     74%   29 1010.8        
May 26 19:15 Calm 16.09 Clear CLR 27 21     70%   29 1010.5        
May 26 18:55 Calm 16.09 Clear CLR 28 20     62%   30 1010.5        
May 26 18:35 Calm 16.09 Clear CLR 28 20     62%   30 1010.5        
May 26 18:15 Calm 16.09 Clear CLR 28 20     62%   30 1010.5        
May 26 17:55 SSE 5 16.09 Clear CLR 29 20     58%   31 1010.5        
May 26 17:35 ESE 9 16.09 Clear CLR 29 20     58%   31 1010.5        
May 26 17:15 ESE 11 16.09 Clear CLR 29 20     58%   31 1010.5        
May 26 16:55 SE 11 16.09 Clear CLR 29 20     58%   31 1010.5        
May 26 16:35 SE 11 16.09 Clear CLR 29 19     55%   30 1010.5        
May 26 16:15 SSE 18 16.09 Mostly Clear FEW040 29 20     58%   31 1010.5        
May 26 15:55 SE 24 16.09 Partly Cloudy SCT039 SCT047 29 21     62%   31 1010.8        
May 26 15:35 SE 15 16.09 Clear CLR 30 20     55%   32 1010.8        
May 26 15:15 SSE 11 16.09 Clear CLR 30 19     52%   31 1010.8        
May 26 14:55 SE 13 16.09 Mostly Clear FEW039 30 19     52%   31 1010.8        
May 26 14:35 8 16.09 Partly Cloudy SCT038 30 19     52%   31 1011.2        
May 26 14:15 8 16.09 Mostly Clear FEW055 30 19     52%   31 1011.5        
May 26 13:55 S 9 16.09 Mostly Cloudy FEW035 SCT044 BKN055 30 20     55%   32 1011.9        
May 26 13:35 8 16.09 Mostly Cloudy BKN035 29 20     58%   31 1012.2        
May 26 13:15 Calm 16.09 Mostly Clear FEW033 29 20     58%   31 1012.5        
May 26 12:55 Calm 16.09 Clear CLR 28 20     62%   30 1012.9        
May 26 12:35 Calm 16.09 Clear CLR 28 20     62%   30 1013.2        
May 26 12:15 W 8 16.09 Mostly Clear FEW029 28 20     62%   30 1013.2        
May 26 11:55 W 5 16.09 Clear CLR 28 20     62%   30 1013.6        
May 26 11:35 Calm 16.09 Clear CLR 27 20     66%   28 1013.9        
May 26 11:15 Calm 16.09 Clear CLR 27 20     66%   28 1014.2        
May 26 10:55 Calm 16.09 Clear CLR 26 20     70%   26 1014.2        
May 26 10:35 Calm 16.09 Clear CLR 26 21     74%   27 1014.2        
May 26 10:15 Calm 16.09 Clear CLR 25 21     78%   26 1014.6        
May 26 09:55 Calm 16.09 Mostly Clear FEW011 25 21     78%   26 1014.6        
May 26 09:35 Calm 16.09 Partly Cloudy SCT010 24 21     83%   25 1014.6        
May 26 09:15 Calm 16.09 Partly Cloudy SCT009 23 21     89%   24 1014.6        
May 26 08:55 Calm 16.09 Mostly Clear FEW007 23 21     89%   24 1014.6        
May 26 08:35 Calm 16.09 Partly Cloudy SCT004 22 21     94%   23 1014.6        
May 26 08:15 Calm 16.09 Mostly Cloudy BKN003 22 21     94%   23 1014.2        
May 26 07:55 SE 5 16.09 Partly Cloudy SCT003 21 21     100%     1014.2        
May 26 07:35 SE 5 16.09 Mostly Cloudy BKN003 21 20     94%     1014.2        
May 26 07:15 Calm 16.09 Cloudy OVC003 21 20     94%     1013.9        
May 26 06:55 Calm 12.87 Cloudy OVC002 21 20     94%     1013.6        
May 26 06:35 Calm 0.8 Fog/Mist OVC002 20 20     100%     1013.6        
May 26 06:15 Calm 0.4 Fog OVC002 20 20     100%     1013.2        
May 26 05:55 Calm 0.4 Fog OVC002 20 20     100%     1012.9        
May 26 05:35 SE 5 0.4 Fog OVC003 20 19     94%     1012.5        
May 26 05:15 Calm 8.05 Fog/Mist OVC003 20 19     94%     1012.5        
May 26 04:55 Calm 16.09 Mostly Cloudy BKN003 20 19     94%     1012.5        
May 26 04:35 Calm 16.09 Clear CLR 20 20     100%     1012.5        
May 26 04:15 Calm 16.09 Mostly Clear FEW003 21 20     94%     1012.5        
May 26 03:55 Calm 16.09 Mostly Clear FEW003 21 20     94%     1012.5        
May 26 03:35 Calm 11.27 Clear CLR 21 20     94%     1012.5        
May 26 03:15 Calm 16.09 Clear CLR 21 20     94%     1012.5        
May 26 02:55 Calm 16.09 Partly Cloudy SCT002 21 21     100%     1012.5        
May 26 02:35 Calm 3.22 Fog/Mist BKN002 21 20     94%     1012.5        
May 26 02:15 Calm 12.87 Mostly Clear FEW002 FEW041 21 20     94%     1012.9        
May 26 01:55 SE 5 16.09 Clear CLR 21 20     94%     1012.9        
May 26 01:35 Calm 16.09 Clear CLR 21 21     100%     1013.2        
May 26 01:15 Calm 16.09 Clear CLR 21 21     100%     1013.6        
May 26 00:55 Calm 16.09 Clear CLR 22 21     94%   23 1013.9        
May 26 00:35 Calm 16.09 Clear CLR 22 21     94%   23 1013.6        
May 26 00:15 SW 8 16.09 Clear CLR 22 21     94%   23 1013.9        
May 25 23:55 Calm 16.09 Clear CLR 22 21     94%   23 1013.6        
May 25 23:35 SE 9 16.09 Clear CLR 22 21     94%   23 1013.6        
May 25 23:15 SE 8 16.09 Clear CLR 22 21     94%   23 1013.9        
May 25 22:55 SE 8 16.09 Clear CLR 22 21     94%   23 1013.9        
May 25 22:35 Calm 16.09 Clear CLR 23 22     94%   24 1013.9        
May 25 22:15 Calm 16.09 Clear CLR 23 22     94%   24 1014.2        
May 25 21:55 Calm 16.09 Clear CLR 23 22     94%   24 1014.2        
May 25 21:35 Calm 16.09 Partly Cloudy SCT095 SCT120 23 22     94%   24 1014.2        
May 25 21:15 Calm 16.09 Cloudy BKN100 OVC120 23 22     94%   24 1014.2        
May 25 20:55 Calm 16.09 Mostly Cloudy FEW015 BKN100 BKN120 24 22     89%   25 1013.9        
May 25 20:35 Calm 16.09 Partly Cloudy SCT017 SCT110 24 22     89%   25 1013.9        
May 25 20:15 WSW 8 16.09 Mostly Cloudy SCT019 BKN055 BKN100 24 22     89%   25 1014.2        
May 25 19:55 SSW 8 16.09 Mostly Clear FEW055 FEW100 24 22     89%   25 1014.2        
May 25 19:35 Calm 16.09 Mostly Clear FEW120 24 22     89%   25 1013.9        
May 25 19:15 Calm 16.09 Partly Cloudy SCT100 24 22     89%   25 1013.6        
May 25 18:55 Calm 16.09 Clear CLR 25 22     83%   26 1013.2        
May 25 18:35 Calm 16.09 Clear CLR 25 22     83%   26 1012.9        
May 25 18:15 ESE 8 16.09 Light Rain CLR 25 21     78%   26 1012.9        
May 25 17:55 E 5 16.09 Light Rain CLR 26 22     79%   28 1012.9        
May 25 17:35 Calm 16.09 Clear CLR 25 21     78%   26 1012.9        
May 25 17:15 Calm 16.09 Clear CLR 24 22     89%   25 1012.9        
May 25 16:55 Calm 16.09 Light Rain CLR 23 22     94%   24 1013.6        
May 25 16:35 ENE 5 16.09 Light Rain CLR 23 21     89%   24 1013.6        
May 25 16:15 NE 9 16.09 Clear CLR 23 21     89%   24 1013.6        
May 25 15:55 E 11 16.09 Light Rain SCT005 SCT049 SCT060 23 22     94%   24 1013.9        
May 25 15:35 NE 11 12.87 Light Rain SCT005 SCT023 BKN029 22 22     100%   23 1014.2        
May 25 15:15 ENE 17 4.83 Rain SCT004 BKN026 OVC035 22 21     94%   23 1014.6        
May 25 14:55   1.21 Heavy Rain BKN004 OVC026 22 21     94%   23 1014.6        
May 25 14:35 ENE 22 16.09 Thunderstorms FEW022 BKN029 OVC044 23 21     89%   24 1014.9        
May 25 14:15 E 22 16.09 Thunderstorms FEW013 BKN022 OVC032 23 20     83%   24 1014.6        
May 25 13:55 SW 8 16.09 Thunderstorms SCT031 SCT037 BKN047 30 21     59%   33 1014.2        
May 25 13:35 9 16.09 Mostly Cloudy FEW037 SCT046 BKN065 30 21     59%   33 1014.6        
May 25 11:55 5 16.09 Mostly Clear FEW030 FEW037 29 21     62%   31 1015.9        
May 25 11:35 8 16.09 Clear CLR 29 21     62%   31 1016.3        
May 25 11:15 8 16.09 Clear CLR 29 21     62%   31 1016.6        
May 25 10:55 Calm 16.09 Clear CLR 28 21     66%   30 1016.6        
May 25 10:35 Calm 16.09 Mostly Clear FEW020 27 20     66%   28 1016.9        
May 25 10:15 8 16.09 Mostly Clear FEW021 27 21     70%   29 1016.9        
May 25 09:55 Calm 16.09 Clear CLR 27 21     70%   29 1016.9        
May 25 09:35 8 16.09 Clear CLR 27 21     70%   29 1016.9        
May 25 09:15 E 9 16.09 Clear CLR 26 21     74%   27 1016.9        
May 25 08:55 Calm 16.09 Clear CLR 25 21     78%   26 1017.3        
May 25 08:35 Calm 16.09 Clear CLR 24 21     83%   25 1016.9        
May 25 08:15 NE 5 16.09 Clear CLR 23 21     89%   24 1017.3        
May 25 07:55 ENE 5 16.09 Clear CLR 23 21     89%   24 1016.9        
May 25 07:35 Calm 16.09 Clear CLR 22 21     94%   23 1016.9        
May 25 07:15 Calm 16.09 Clear CLR 22 21     94%   23 1016.9        
May 25 06:55 ESE 5 16.09 Clear CLR 22 21     94%   23 1016.6        
May 25 06:35 Calm 16.09 Partly Cloudy SCT003 SCT018 21 21     100%     1016.6        
May 25 06:15 Calm 2.01 Fog/Mist BKN003 OVC033 20 20     100%     1016.6        
May 25 05:55 Calm 0.4 Fog OVC002 20 20     100%     1016.3        
May 25 05:35 Calm 1.21 Fog/Mist OVC002 21 20     94%     1016.3        
May 25 05:15 Calm 0.8 Fog OVC002 21 21     100%     1016.3        
May 25 04:55 Calm 0.8 Fog OVC002 21 20     94%     1016.3        
May 25 04:35 Calm 3.22 Fog/Mist BKN002 BKN023 21 20     94%     1015.9        
May 25 04:15 Calm 2.01 Fog/Mist BKN002 BKN023 21 20     94%     1015.9        
May 25 03:35 Calm 16.09 Mostly Clear FEW003 FEW018 22 21     94%   23 1016.3        
May 25 03:15 Calm 16.09 Clear CLR 22 21     94%   23 1015.9        
May 25 02:55 N 5 16.09 Clear CLR 22 21     94%   23 1016.3        
May 15 07:15 E 9 16.09 Clear CLR 21 18     83%     1014.9        
May 14 21:35 SSE 5 16.09 Clear CLR 25 19     69%   25 1013.2        
May 14 10:35 NE 13 16.09 Clear CLR 31 16     40%   31 1016.6        
May 14 08:15 N 8 16.09 Clear CLR 25 17     61%   25 1016.9        
May 14 07:55 N 8 16.09 Clear CLR 24 18     69%   24 1016.6        
Notice The following observation data may not be complete
May 14 05:15   16.09 Clear CLR          %              
Notice The following observation data may not be complete
May 13 20:15   16.09 Clear CLR          %              
May 13 16:15 NNE 8 16.09 Mostly Clear FEW075 34 13     28%   33 1016.6        
May 13 13:35 N 15 16.09 Mostly Clear FEW065 33 14     32%   32 1018.6        
May 13 11:55 9 16.09 Clear   32 14     34%   31 1019.7        
May 13 06:35 Calm 16.09 Clear CLR 16 14     88%     1019.3        
Notice The following observation data may not be complete
May 13 05:15   16.09 Clear CLR          %              
May 13 00:15 Calm 16.09 Clear CLR 19 17     88%     1018.6        
May 12 10:15 Calm 16.09 Clear CLR 28 16     48%   28 1021.3        
Notice The following observation data may not be complete
May 12 08:55 Calm 16.09 Clear CLR   16      %     1021.7        
May 12 08:35 Calm 16.09 Clear CLR 24 15     57%   24 1021.7        
May 12 01:15 Calm 16.09 Clear CLR 17 14     83%     1018.6        
May 11 21:55 Calm 16.09 Clear CLR 20 17     83%     1018.6        
May 11 19:35 Calm 16.09 Mostly Clear FEW080 26 17     58%   26 1017.3        
May 11 15:55 S 18 16.09 Clear CLR 33 12     28%   32 1017.3        
May 11 11:35 SW 13 16.09 Clear CLR 29        %     1020.7        
Jun 12 07:35 ESE 9 16.09 Clear CLR 25 22     83%   26 1020.7        
Jun 11 21:15 Calm 16.09 Clear   25 23     89%   26 1019.3        
Notice The following observation data may not be complete
Jun 11 20:35   16.09 Cloudy FEW055 OVC065          %              
Jun 11 17:35 SSE 9 16.09 Light Rain SCT032 BKN050 BKN065 23 21     89%   24 1017.6        
Notice The following observation data may not be complete
Jun 11 17:15 SE 22 4.83 Clear     21      %     1018.3        
Jun 11 14:55 E 15 16.09 Mostly Clear FEW047 FEW060 33 20     46%   35 1018.3        
Jun 11 02:35 Calm 16.09 Mostly Clear FEW055 20 18     88%     1017.6        
Jun 10 23:35 Calm 16.09 Clear CLR 21 18     83%     1018        
Jun 10 12:55 SE 15 16.09 Mostly Cloudy FEW055 BKN080 30 15     40%   30 1018        
Jun 09 22:55 Calm 16.09 Mostly Cloudy BKN060 BKN070 20 18     88%     1015.2        
Jun 09 16:35 W 13 16.09 Clear CLR 30 14     38%   29 1013.2        
Notice The following observation data may not be complete
Jun 09 12:35   16.09 Partly Cloudy SCT055          %              
Jun 08 08:35 Calm 16.09 Clear CLR 21 15     69%     1013.2        
Jun 07 22:15 N 11 16.09 Mostly Cloudy BKN070 BKN080 23 14     57%   23 1010.8        
Jun 07 20:15 NNE 8 16.09 Mostly Cloudy BKN060 BKN070 25 17     61%   25 1009.5        
Jun 07 19:15 NNE 17 16.09 Mostly Clear FEW080 27 15     48%   27 1009.2        
Notice The following observation data may not be complete
Jun 07 14:35   16.09 Mostly Clear FEW050 FEW055          %              
Jun 07 12:35 N 18 16.09 Mostly Cloudy BKN037 28 19     58%   29 1008.1        
Jun 07 11:55 N 13 16.09 Partly Cloudy SCT032 SCT037 28 19     58%   29 1008.1        
Jun 07 09:35 NNE 13 16.09 Clear CLR 25 18     65%   25 1008.5        
Notice The following observation data may not be complete
Jun 06 09:15   16.09 Cloudy OVC005          %              
Jun 05 20:15 E 11 16.09 Cloudy BKN004 BKN080 OVC090 23 22     94%   24 1008.8